Weather History for KWVL - September, 2012

Change the Weather History Date:

Sunday, September 23, 2012

  Actual Average Record
Temperature  
Mean Temperature 55 °F -  
Max Temperature 66 °F 68 °F 89 °F (1965)
Min Temperature 44 °F 45 °F 34 °F (1979)
Degree Days  
Heating Degree Days 10    
Growing Degree Days 5 (Base 50)    
Moisture  
Dew Point 48 °F    
Average Humidity 69    
Maximum Humidity 100    
Minimum Humidity 37    
Precipitation  
Precipitation 0.00 in - - ()
Sea Level Pressure  
Sea Level Pressure 29.86 in    
Wind  
Wind Speed 5 mph (West)    
Max Wind Speed 13 mph    
Max Gust Speed 20 mph    
Visibility 8 miles    
Events      
Averages and records for this station are not official NWS values.
T = Trace of Precipitation, MM = Missing Value Source: NWS Daily Summary

Daily Weather History Graph

Daily Weather History Graph

Search for Another Location

Airport or City:

Trip Planner

Search our weather history database for the weather conditions in past years. The results will help you decide how hot, cold, wet, or windy it might be!

Date:

Astronomy

Sep. 23, 2012 Rise Set
Actual Time 6:27 AM EDT 6:33 PM EDT
Civil Twilight 5:58 AM EDT 7:02 PM EDT
Nautical Twilight 5:24 AM EDT 7:36 PM EDT
Astronomical Twilight 4:49 AM EDT 8:11 PM EDT
Moon 2:44 PM EDT (9/23) No Moon Set
Length of Visible Light 13h 03m
Length of Day
12h 05m
First Quarter, 60% of the Moon is Illuminated
Sep 23
First Quarter
Sep 29
Full
Oct 8
Last Quarter
Oct 15
New
Oct 21
First Quarter

Hourly Weather History & Observations

Time (EDT) Temp. Windchill Dew Point Humidity Pressure Visibility Wind Dir Wind Speed Gust Speed Precip Events Conditions
12:15 AM 57.2 °F - 55.4 °F 94% 29.80 in 1.0 mi South 3.5 mph - N/A   Overcast
12:35 AM 57.2 °F - 55.4 °F 94% 29.79 in 0.5 mi South 4.6 mph - N/A   Overcast
12:55 AM 57.2 °F - 55.4 °F 94% 29.80 in 0.5 mi South 3.5 mph - N/A   Overcast
1:15 AM 57.2 °F - 57.2 °F 100% 29.79 in 0.5 mi South 4.6 mph - N/A   Overcast
1:35 AM 57.2 °F - 57.2 °F 100% 29.78 in 0.5 mi Calm Calm - N/A   Overcast
1:55 AM 57.2 °F - 57.2 °F 100% 29.77 in 0.2 mi SSE 3.5 mph - N/A   Overcast
2:15 AM 59.0 °F - 57.2 °F 94% 29.76 in 1.2 mi SSE 3.5 mph - N/A   Overcast
2:35 AM 59.0 °F - 57.2 °F 94% 29.75 in 3.0 mi South 4.6 mph - N/A   Overcast
2:55 AM 59.0 °F - 57.2 °F 94% 29.74 in 5.0 mi Calm Calm - N/A   Overcast
3:15 AM 59.0 °F - 57.2 °F 94% 29.74 in 5.0 mi South 5.8 mph - N/A   Overcast
3:35 AM 59.0 °F - 57.2 °F 94% 29.73 in 5.0 mi South 3.5 mph - N/A   Overcast
3:55 AM 59.0 °F - 57.2 °F 94% 29.73 in 7.0 mi SSW 4.6 mph - N/A   Overcast
4:15 AM 60.8 °F - 57.2 °F 88% 29.75 in 2.0 mi WSW 6.9 mph - N/A   Overcast
4:35 AM 60.8 °F - 57.2 °F 88% 29.75 in 1.8 mi WSW 3.5 mph - N/A   Overcast
4:55 AM 60.8 °F - 57.2 °F 88% 29.75 in 3.0 mi SW 3.5 mph - N/A   Overcast
5:15 AM 60.8 °F - 57.2 °F 88% 29.75 in 2.0 mi Calm Calm - N/A   Overcast
5:35 AM 60.8 °F - 57.2 °F 88% 29.76 in 3.0 mi SSW 3.5 mph - N/A   Overcast
5:55 AM 60.8 °F - 57.2 °F 88% 29.76 in 3.0 mi SW 3.5 mph - N/A   Overcast
6:15 AM 60.8 °F - 57.2 °F 88% 29.77 in 8.0 mi Calm Calm - N/A   Overcast
6:35 AM 60.8 °F - 59.0 °F 94% 29.77 in 10.0 mi WSW 5.8 mph - N/A   Overcast
6:55 AM 60.8 °F - 57.2 °F 88% 29.78 in 10.0 mi WSW 3.5 mph - N/A   Overcast
7:15 AM 60.8 °F - 57.2 °F 88% 29.78 in 10.0 mi West 4.6 mph - N/A   Overcast
7:35 AM 60.8 °F - 55.4 °F 82% 29.79 in 10.0 mi West 5.8 mph - N/A   Mostly Cloudy
7:55 AM 60.8 °F - 53.6 °F 77% 29.80 in 10.0 mi WNW 10.4 mph 19.6 mph N/A   Overcast
8:15 AM 59.0 °F - 53.6 °F 82% 29.81 in 10.0 mi NW 9.2 mph - N/A   Mostly Cloudy
8:35 AM 60.8 °F - 53.6 °F 77% 29.82 in 10.0 mi WNW 6.9 mph - N/A   Clear
8:55 AM 60.8 °F - 50.0 °F 68% 29.83 in 10.0 mi NW 6.9 mph - N/A   Clear
9:15 AM 60.8 °F - 48.2 °F 63% 29.84 in 10.0 mi WNW 9.2 mph 16.1 mph N/A   Clear
9:35 AM 60.8 °F - 48.2 °F 63% 29.84 in 10.0 mi West 6.9 mph - N/A   Clear
9:55 AM 62.6 °F - 48.2 °F 59% 29.84 in 10.0 mi WNW 8.1 mph - N/A   Clear
10:15 AM 62.6 °F - 50.0 °F 63% 29.84 in 10.0 mi NW 8.1 mph - N/A   Clear
10:35 AM 62.6 °F - 50.0 °F 63% 29.85 in 10.0 mi West 3.5 mph - N/A   Clear
10:55 AM 62.6 °F - 50.0 °F 63% 29.86 in 10.0 mi NW 9.2 mph - N/A   Mostly Cloudy
11:15 AM 62.6 °F - 48.2 °F 59% 29.86 in 10.0 mi NW 12.7 mph - N/A   Mostly Cloudy
11:35 AM 64.4 °F - 46.4 °F 52% 29.87 in 10.0 mi WNW 9.2 mph 17.3 mph N/A   Partly Cloudy
11:55 AM 62.6 °F - 46.4 °F 55% 29.87 in 10.0 mi WNW 9.2 mph - N/A   Clear
12:15 PM 64.4 °F - 46.4 °F 52% 29.87 in 10.0 mi WNW 12.7 mph 16.1 mph N/A   Clear
12:35 PM 64.4 °F - 44.6 °F 49% 29.87 in 10.0 mi WNW 11.5 mph 17.3 mph N/A   Clear
12:55 PM 64.4 °F - 44.6 °F 49% 29.87 in 10.0 mi West 9.2 mph - N/A   Clear
1:15 PM 64.4 °F - 44.6 °F 49% 29.87 in 10.0 mi West 6.9 mph - N/A   Clear
1:35 PM 64.4 °F - 44.6 °F 49% 29.87 in 10.0 mi WNW 10.4 mph - N/A   Clear
1:55 PM 64.4 °F - 44.6 °F 49% 29.87 in 10.0 mi West 8.1 mph - N/A   Clear
2:15 PM 64.4 °F - 44.6 °F 49% 29.88 in 10.0 mi WNW 11.5 mph - N/A   Clear
2:35 PM 64.4 °F - 44.6 °F 49% 29.88 in 10.0 mi WSW 4.6 mph - N/A   Clear
2:55 PM 66.2 °F - 44.6 °F 46% 29.88 in 10.0 mi West 6.9 mph - N/A   Partly Cloudy
3:15 PM 66.2 °F - 42.8 °F 43% 29.88 in 10.0 mi West 6.9 mph - N/A   Partly Cloudy
3:35 PM 64.4 °F - 42.8 °F 45% 29.89 in 10.0 mi West 9.2 mph 16.1 mph N/A   Clear
3:55 PM 64.4 °F - 41.0 °F 42% 29.89 in 10.0 mi West 9.2 mph - N/A   Clear
4:15 PM 64.4 °F - 41.0 °F 42% 29.89 in 10.0 mi WSW 10.4 mph 18.4 mph N/A   Clear
4:35 PM 64.4 °F - 39.2 °F 40% 29.90 in 10.0 mi West 9.2 mph - N/A   Clear
4:55 PM 64.4 °F - 39.2 °F 40% 29.91 in 10.0 mi West 8.1 mph - N/A   Clear
5:15 PM 64.4 °F - 37.4 °F 37% 29.92 in 10.0 mi West 5.8 mph - N/A   Clear
5:35 PM 62.6 °F - 37.4 °F 39% 29.92 in 10.0 mi West 5.8 mph - N/A   Clear
5:55 PM 62.6 °F - 37.4 °F 39% 29.93 in 10.0 mi West 3.5 mph - N/A   Clear
6:15 PM 60.8 °F - 37.4 °F 42% 29.93 in 10.0 mi West 5.8 mph - N/A   Clear
6:35 PM 59.0 °F - 37.4 °F 45% 29.94 in 10.0 mi WNW 3.5 mph - N/A   Clear
6:55 PM 55.4 °F - 41.0 °F 58% 29.94 in 10.0 mi WNW 4.6 mph - N/A   Clear
7:15 PM 55.4 °F - 39.2 °F 54% 29.95 in 10.0 mi West 3.5 mph - N/A   Clear
7:35 PM 55.4 °F - 39.2 °F 54% 29.96 in 10.0 mi NNW 4.6 mph - N/A   Clear
7:55 PM 48.2 °F - 42.8 °F 82% 29.96 in 10.0 mi NW 6.9 mph - N/A   Clear
8:15 PM 53.6 °F - 39.2 °F 58% 29.96 in 10.0 mi WNW 4.6 mph - N/A   Clear
8:35 PM 50.0 °F - 39.2 °F 66% 29.97 in 10.0 mi Calm Calm - N/A   Clear
8:55 PM 48.2 °F - 42.8 °F 82% 29.98 in 10.0 mi WNW 3.5 mph - N/A   Clear
9:15 PM 48.2 °F - 41.0 °F 76% 29.99 in 10.0 mi WNW 4.6 mph - N/A   Clear
9:35 PM 48.2 °F - 39.2 °F 71% 29.99 in 10.0 mi West 4.6 mph - N/A   Clear
9:55 PM 46.4 °F 45.2 °F 39.2 °F 76% 29.99 in 10.0 mi NW 3.5 mph - N/A   Clear
10:15 PM 44.6 °F 41.4 °F 39.2 °F 81% 30.00 in 10.0 mi WNW 5.8 mph - N/A   Clear
10:35 PM 48.2 °F - 37.4 °F 66% 30.00 in 10.0 mi NW 4.6 mph - N/A   Clear
10:55 PM 48.2 °F - 39.2 °F 71% 30.01 in 10.0 mi NW 5.8 mph - N/A   Clear
11:15 PM 48.2 °F - 37.4 °F 66% 30.01 in 10.0 mi NW 4.6 mph - N/A   Clear
11:35 PM 48.2 °F - 39.2 °F 71% 30.01 in 10.0 mi NW 5.8 mph - N/A   Clear
11:55 PM 48.2 °F - 39.2 °F 71% 30.01 in 10.0 mi NW 4.6 mph - N/A   Clear